Regional Weather Roundup
Issued by NWS Little Rock, AR

Home | Current Version | Previous Version | Text Only | Print | Product List | Glossary Off
Versions: 1 2 3 4 5 6 7 8 9 10 11 12 13 14 15 16 17 18 19 20 21 22 23 24 25 26 27 28 29 30 31 32 33 34 35 36 37 38 39 40 41 42 43 44 45 46 47 48 49 50

000
ASUS44 KLZK 270905
RWRLZK

WEATHER ROUNDUP FOR ARKANSAS
NATIONAL WEATHER SERVICE LITTLE ROCK AR
400 AM CDT WED AUG 27 2014

NOTE: "FAIR" INDICATES FEW OR NO CLOUDS BELOW 12,000 FEET WITH NO
SIGNIFICANT WEATHER AND/OR OBSTRUCTIONS TO VISIBILITY.

ARZ001-003-010-029-271000-
NORTHWEST ARKANSAS

CITY           SKY/WX    TMP DP  RH WIND       PRES   REMARKS
FAYETTEVILLE   CLEAR     69  68  96 CALM      30.12R
FORT SMITH     CLEAR     78  72  81 E3        30.07R
HARRISON       CLEAR     70  69  97 CALM      30.12S
BENTONVILLE    CLEAR     72  66  83 CALM      30.13S
ROGERS         CLEAR     74  68  81 CALM      30.13R
SILOAM SPGS    CLEAR     72  63  73 E3        30.12S
HIGHFILL       CLEAR     71  66  84 CALM      30.12R
$$

ARZ004-005-016-271000-
NORTH CENTRAL ARKANSAS

CITY           SKY/WX    TMP DP  RH WIND       PRES   REMARKS
BATESVILLE     CLEAR     73  72  94 CALM      30.07S
FLIPPIN        CLEAR     73  66  78 CALM      30.09S
MTN HOME       CLEAR     72  69  90 CALM      30.08F
$$

ARZ040-041-271000-
WEST CENTRAL ARKANSAS

CITY           SKY/WX    TMP DP  RH WIND       PRES   REMARKS
MENA           CLEAR     72  70  94 CALM      30.10R
MOUNT IDA      CLEAR     72  70  93 CALM      30.06S FOG
$$

ARZ009-017-025-026-028-271000-
NORTHEAST ARKANSAS

CITY           SKY/WX    TMP DP  RH WIND       PRES   REMARKS
CORNING          N/A     73  73 100 CALM      30.07S
JONESBORO      CLEAR     73  70  90 CALM      30.06S
NEWPORT        CLEAR     77  74  90 E3        30.07S
WALNUT RIDGE   CLEAR     72  66  83 CALM      30.06R
BLYTHEVILLE    CLEAR     73  72  96 CALM      30.06S
$$

ARZ022-023-033-042-044-271000-
CENTRAL ARKANSAS

CITY           SKY/WX    TMP DP  RH WIND       PRES   REMARKS
LITTLE ROCK    PTCLDY    78  73  84 CALM      30.05F
N LITTLE ROCK    N/A     77  74  88 NW2       30.05F
JACKSONVILLE   LGT RAIN  74  73  95 CALM      30.05F
SEARCY         CLEAR     74  74 100 CALM      30.06F
HOT SPRINGS    CLEAR     75  72  90 CALM      30.07S
RUSSELLVILLE   CLEAR     74  72  93 CALM      30.06S
CLINTON        FAIR      72  72 100 CALM      30.08S FOG
$$

ARZ036-271000-
EAST ARKANSAS

CITY           SKY/WX    TMP DP  RH WIND       PRES   REMARKS
WEST MEMPHIS   CLEAR     73  73 100 CALM      30.05S
$$

ARZ050-053-066-070-073-271000-
SOUTHWEST ARKANSAS

CITY           SKY/WX    TMP DP  RH WIND       PRES   REMARKS
ARKADELPHIA    FAIR      72  72 100 CALM      30.05S FOG
CAMDEN         FOG       68  66  94 CALM      30.04S VSB 3/4
TEXARKANA      PTCLDY    72  72 100 E3        30.04S FOG
EL DORADO      PTCLDY    70  69  97 CALM      30.04S
DE QUEEN       FOG       72  71  97 CALM      30.04S VSB 1
$$

ARZ056-057-069-271000-
SOUTHEAST ARKANSAS

CITY           SKY/WX    TMP DP  RH WIND       PRES   REMARKS
PINE BLUFF     PTCLDY    72  70  93 CALM      30.05S
STUTTGART      PTCLDY    75  72  88 E3        30.06S
MONTICELLO     CLEAR     70  67  90 CALM      30.04S

$$





USA.gov is the U.S. government's official web portal to all federal, state and local government web resources and services.